Home   Weather   Helsinki   Past weeks
Flag for Finland

Past Weather in Helsinki, Finland — Yesterday and Last 2 Weeks

Now
-2 °F

Clear.


Feels Like: -14 °F
Forecast: 21 / 5 °F
Wind: 6 mph from Northwest

Location: Helsinki-Vantaa

Current Time: Jan 21, 2019 at 9:38:21 am

Latest Report: Jan 21, 2019 at 8:50 am


Visibility: 10 mi

Pressure: 29.89 "Hg

Humidity: 92%

Dew Point: -4 °F

Location of HelsinkiLocation

Past Weather in Helsinki — Graph

°F

Helsinki Temperature Yesterday

Maximum temperature yesterday: 25 °F (at 12:20 am)
Minimum temperature yesterday: 9 °F (at 7:50 pm)
Average temperature yesterday: 16 °F

High & Low Weather Summary for the Past Weeks

 TemperatureHumidityPressure
High36 °F (Jan 7, 4:50 am)100% (Jan 6, 9:20 pm)30.21 "Hg (Jan 6, 9:20 pm)
Low-4 °F (Jan 21, 8:20 am)75% (Jan 11, 4:20 pm)28.62 "Hg (Jan 14, 7:20 am)
Average23 °F92%29.45 "Hg
* Reported Jan 6 8:20 am — Jan 21 8:20 am, Helsinki. Weather by CustomWeather, © 2019

Note: Actual official high and low records may vary slightly from our data, if they occured in-between our weather recording intervals... More about our weather records

Advertising

Helsinki Weather History for the Previous 24 Hours

Scroll right to see more
 ConditionsComfort  
Time TempWeatherWind HumidityBarometerVisibility
8:20 am
Mon, Jan 21
-4 °FClear.5 mph84%29.89 "Hg10 mi
7:50 am1 °FClear.5 mph85%29.89 "Hg10 mi
7:20 am1 °FClear.7 mph92%29.89 "Hg10 mi
6:50 am0 °FClear.6 mph84%29.86 "Hg10 mi
6:20 am3 °FClear.5 mph92%29.86 "Hg10 mi
5:50 am3 °FClear.7 mph92%29.86 "Hg10 mi
5:20 am5 °FClear.6 mph92%29.86 "Hg10 mi
4:50 am5 °FClear.6 mph92%29.86 "Hg10 mi
4:20 am5 °FClear.6 mph92%29.86 "Hg10 mi
3:50 am7 °FClear.6 mph85%29.86 "Hg10 mi
3:20 am7 °FClear.8 mph85%29.86 "Hg10 mi
2:50 am7 °FClear.8 mph92%29.86 "Hg10 mi
2:20 am7 °FClear.8 mph92%29.86 "Hg10 mi
1:50 am7 °FClear.7 mph92%29.83 "Hg10 mi
1:20 am7 °FClear.7 mph92%29.83 "Hg10 mi
12:50 am9 °FClear.8 mph85%29.83 "Hg10 mi
12:20 am9 °FClear.9 mph85%29.83 "Hg10 mi
11:50 pm
Sun, Jan 20
9 °FClear.7 mph85%29.83 "Hg10 mi
11:20 pm9 °FClear.8 mph85%29.83 "Hg10 mi
10:50 pm9 °FClear.8 mph85%29.80 "Hg10 mi
10:20 pm9 °FClear.8 mph85%29.80 "Hg10 mi
9:50 pm9 °FClear.9 mph92%29.80 "Hg10 mi
9:20 pm9 °FPassing clouds.8 mph92%29.80 "HgN/A
8:20 pm9 °FPassing clouds.8 mph92%29.80 "HgN/A
7:50 pm9 °FPassing clouds.8 mph92%29.77 "HgN/A
7:20 pm10 °FPassing clouds.8 mph92%29.77 "HgN/A
6:50 pm10 °FPassing clouds.8 mph92%29.77 "HgN/A
6:20 pm12 °FClear.8 mph92%29.77 "Hg10 mi
5:50 pm12 °FPassing clouds.8 mph92%29.77 "HgN/A
5:20 pm10 °FLight snow. Passing clouds.6 mph100%29.77 "HgN/A
4:50 pm10 °FPassing clouds.6 mph92%29.77 "HgN/A
4:20 pm12 °FPassing clouds.6 mph92%29.77 "HgN/A
3:50 pm16 °FPassing clouds.6 mph86%29.74 "HgN/A
3:20 pm16 °FScattered clouds.9 mph86%29.74 "HgN/A
2:50 pm18 °FPartly sunny.9 mph79%29.74 "HgN/A
2:20 pm18 °FPartly sunny.13 mph79%29.74 "HgN/A
1:50 pm18 °FPartly sunny.15 mph79%29.74 "HgN/A
1:20 pm16 °FScattered clouds.12 mph86%29.71 "HgN/A
12:50 pm16 °FSunny.12 mph86%29.71 "Hg10 mi
12:20 pm16 °FSunny.12 mph79%29.71 "Hg10 mi
11:50 am14 °FSunny.12 mph85%29.71 "Hg10 mi
11:20 am14 °FSunny.10 mph85%29.71 "Hg10 mi
10:50 am14 °FSunny.10 mph85%29.68 "Hg10 mi
10:20 am14 °FPassing clouds.13 mph85%29.68 "HgN/A
9:50 am16 °FLight snow. Scattered clouds.17 mph79%29.68 "HgN/A
9:20 am18 °FLight snow. Broken clouds.21 mph86%29.65 "HgN/A
Weather by CustomWeather, © 2019

See weather overview

LIVE TOTAL LUNAR ECLIPSE – Watch the eclipse as it happens